[[{"header":{"parameterUnit":"m.s-1","parameterCategory":1,"la1":30.2991,"la2":30.254,"lo1":-89.0895,"lo2":-89.0444,"dy":0.0017,"dx":0.0017,"nx":28,"ny":28,"refTime":"2024-08-09T21:00:00:Z","depth":0,"parameterNumber":2,"parameterNumberName":"U-component_of_WINDS"},"data":[0,0,0,0,0,0,0,0,0,0,0,0,0,0,0,0,0,0,0,0,0,0,0,0,0,0,0,0,0,0,0,0,0,0,0,0,0,0,0,0,0,0,0,0,0,0,0,0,0,0,0,0,0,0,0,0,0,0,0.3762,0.3763,0,0.3807,0.3808,0.3808,0.3817,0.3816,0.3816,0.3816,0.3866,0.3868,0.3869,0,0,0,0,0,0,0,0,0,0,0,0,0,0.3689,0.369,0.3762,0.3763,0.3763,0.3807,0.3808,0.3808,0.3817,0.3816,0.3816,0.3815,0.3865,0.3867,0.3869,0,0,0,0,0,0,0,0,0,0,0,0,0,0.3726,0.3691,0.3762,0.3773,0.3774,0.3807,0.3808,0.3808,0.3817,0.3816,0.3816,0.3815,0.3865,0.3867,0.387,0.3896,0,0,0.3877,0.3878,0,0,0,0,0,0,0,0,0.3724,0.3729,0.3771,0.3772,0.3774,0.3806,0.38,0.3838,0.3817,0.3801,0.3816,0.3815,0.3847,0.3851,0.386,0.3899,0.3901,0.3878,0.3879,0.388,0.3881,0,0,0,0,0,0,0,0.3721,0.3727,0.378,0.3771,0.3773,0.3777,0.3782,0.3808,0.3826,0.3802,0.3803,0.3808,0.3847,0.3858,0.3862,0.3902,0.3878,0.388,0.3881,0.3882,0.3967,0.3968,0,0,0,0,0,0,0.3716,0.3725,0.3779,0.3781,0.3747,0.3779,0.3784,0.3796,0.3826,0.383,0.3808,0.3808,0.3854,0.3859,0.3863,0.3898,0.388,0.3883,0.3884,0.3966,0.3967,0.3968,0,0,0,0,0,0,0.3715,0.3721,0.3777,0.3753,0.3761,0.3781,0.3794,0.3797,0.3808,0.3831,0.3835,0.3815,0.3854,0.386,0.3888,0.39,0.3884,0.3886,0.3966,0.3967,0.3968,0.3967,0,0,0,0,0,0,0.3713,0.372,0.3729,0.3753,0.3762,0.3799,0.3795,0.3798,0.3812,0.3812,0.3838,0.3842,0.3854,0.3885,0.3891,0.3903,0.3888,0.3965,0.3966,0.3967,0.3966,0.3968,0.397,0,0,0,0,0,0.371,0.3728,0.373,0.3736,0.3773,0.38,0.3805,0.3817,0.3812,0.3823,0.3838,0.3841,0.3898,0.3887,0.3895,0.3908,0.3964,0.3966,0.3967,0.3965,0.3968,0.3969,0,0,0,0,0,0,0.3705,0.3731,0.3733,0.3759,0.3777,0.3801,0.3814,0.3818,0.3839,0.3838,0.3853,0.3859,0.3888,0.3901,0.3889,0.3937,0.3931,0.3934,0.3927,0.3929,0.3931,0.3927,0.389,0,0,0,0,0,0.3707,0.3725,0.3747,0.3768,0.3777,0.3794,0.3806,0.3813,0.3833,0.3841,0.3859,0.3879,0.3902,0.3916,0.3938,0.3968,0.3975,0.3981,0.3983,0.3984,0.3987,0.4006,0.401,0.3974,0.3974,0.3974,0,0,0.3711,0.3727,0.3738,0.3767,0.3782,0.3802,0.38,0.3821,0.3837,0.3845,0.3873,0.3887,0.3911,0.3941,0.3955,0.3952,0.3999,0.3986,0.3987,0.3989,0.4008,0.4012,0.4015,0.3975,0.3975,0.3974,0,0,0.3729,0.3742,0.3762,0.3777,0.3799,0.3811,0.3816,0.384,0.3849,0.3877,0.3884,0.3904,0.3942,0.3959,0.3973,0.4,0.4005,0.4007,0.4016,0.4035,0.4038,0.404,0.4052,0.4055,0.401,0.401,0.401,0,0.3732,0.3761,0.3772,0.3793,0.3806,0.3814,0.3835,0.385,0.3879,0.3889,0.3886,0.3935,0.3952,0.3987,0.3994,0.4004,0.4012,0.4004,0.4036,0.4039,0.4042,0.4053,0.4056,0.401,0.401,0.401,0.401,0,0.3764,0.3784,0.3797,0.3824,0.3839,0.386,0.3877,0.3891,0.3898,0.3911,0.3941,0.3962,0.3989,0.3998,0.4005,0.4035,0.4033,0.4033,0.4027,0.4045,0.4056,0.406,0.401,0.401,0.401,0.401,0,0,0.3779,0.3812,0.3817,0.383,0.3857,0.3873,0.3896,0.3922,0.3935,0.3955,0.3976,0.4009,0.4009,0.4025,0.4035,0.4051,0.4073,0.4049,0.405,0.4054,0.411,0.411,0.4115,0.4077,0.4078,0.4078,0.4108,0,0.3801,0.3839,0.3851,0.3884,0.3904,0.3913,0.3933,0.3952,0.3966,0.3986,0.4002,0.4025,0.4023,0.4033,0.405,0.4067,0.4085,0.4065,0.4098,0.4099,0.4092,0.412,0.412,0.4147,0.4112,0.4113,0.4114,0,0.3831,0.3851,0.3886,0.3911,0.392,0.3937,0.3963,0.3982,0.4005,0.4014,0.4033,0.4041,0.4068,0.4061,0.4099,0.4085,0.41,0.4111,0.4112,0.4116,0.4108,0.4126,0.4156,0.416,0.412,0.4119,0.4119,0,0.384,0.3876,0.3902,0.3913,0.3942,0.3955,0.3968,0.3991,0.4006,0.403,0.404,0.4066,0.4081,0.4102,0.4119,0.4112,0.4156,0.415,0.4166,0.4166,0.4175,0.4174,0.4209,0.4183,0.4183,0.4183,0.4183,0,0.3863,0.3884,0.3906,0.3922,0.3947,0.3962,0.3987,0.4001,0.4022,0.4043,0.4052,0.4072,0.4092,0.4115,0.4129,0.416,0.4166,0.4175,0.4179,0.4175,0.4174,0.4185,0.4184,0.4184,0.4184,0.4184,0.4184,0,0.3877,0.3892,0.3921,0.3947,0.3955,0.3972,0.3996,0.4013,0.4027,0.4053,0.4061,0.4083,0.4111,0.413,0.4166,0.4175,0.4209,0.4212,0.42,0.4202,0.4217,0.4216,0.4261,0.4268,0.4237,0.4237,0.4237,0,0.3891,0.3907,0.3935,0.3949,0.3963,0.3985,0.4001,0.4017,0.4033,0.4062,0.4077,0.4105,0.4128,0.4173,0.4194,0.4223,0.4227,0.424,0.4231,0.4227,0.4228,0.4227,0.423,0.4242,0.4242,0.4242,0.4242,0,0.3915,0.3922,0.3943,0.3968,0.3986,0.4006,0.4027,0.4039,0.4059,0.4077,0.4105,0.4123,0.416,0.4189,0.422,0.4236,0.4244,0.4245,0.4251,0.4247,0.424,0.4245,0.4205,0.4244,0.4244,0.4244,0.4244,0.4244,0.393,0.3946,0.3968,0.3992,0.401,0.4029,0.4047,0.4063,0.4087,0.4117,0.4126,0.4155,0.4181,0.4223,0.424,0.4265,0.4264,0.4271,0.4274,0.4275,0.4276,0.4236,0.4271,0.4271,0.4271,0.4271,0.4271,0,0.3955,0.397,0.3992,0.4021,0.404,0.4044,0.4068,0.4085,0.4111,0.4133,0.4156,0.419,0.4219,0.4242,0.4273,0.4289,0.4293,0.4296,0.4295,0.43,0.4275,0.4267,0.4292,0.4292,0.4292,0.4292,0.4292,0.4292,0.397,0.3998,0.4008,0.4045,0.4061,0.4089,0.4103,0.4122,0.414,0.4177,0.42,0.4215,0.4239,0.4272,0.4299,0.4306,0.4317,0.4319,0.4327,0.4303,0.4301,0.4299,0.4292,0.4321,0.4322,0.435,0.435,0.435]},{"header":{"parameterUnit":"m.s-1","parameterCategory":1,"la1":30.2991,"la2":30.254,"lo1":-89.0895,"lo2":-89.0444,"dy":0.0017,"dx":0.0017,"nx":28,"ny":28,"refTime":"2024-08-09T21:00:00:Z","depth":0,"parameterNumber":3,"parameterNumberName":"V-component_of_WINDS"},"data":[0,0,0,0,0,0,0,0,0,0,0,0,0,0,0,0,0,0,0,0,0,0,0,0,0,0,0,0,0,0,0,0,0,0,0,0,0,0,0,0,0,0,0,0,0,0,0,0,0,0,0,0,0,0,0,0,0,0,0.2288,0.229,0,0.2489,0.2491,0.2493,0.2536,0.2535,0.2533,0.2532,0.2744,0.275,0.2757,0,0,0,0,0,0,0,0,0,0,0,0,0,0.1943,0.1949,0.2287,0.229,0.2292,0.2488,0.2491,0.2494,0.2537,0.2535,0.2533,0.2531,0.2741,0.275,0.2758,0,0,0,0,0,0,0,0,0,0,0,0,0,0.2113,0.1951,0.2287,0.2337,0.2344,0.2488,0.2491,0.2495,0.2537,0.2535,0.2533,0.253,0.2739,0.2749,0.2759,0.2869,0,0,0.2791,0.2796,0,0,0,0,0,0,0,0,0.2103,0.2126,0.2327,0.2334,0.2342,0.2485,0.2447,0.262,0.2538,0.2464,0.2532,0.2529,0.266,0.2677,0.272,0.2879,0.2888,0.2792,0.2799,0.2803,0.2806,0,0,0,0,0,0,0,0.2092,0.2117,0.2367,0.233,0.2339,0.2351,0.2372,0.248,0.2572,0.247,0.2474,0.2497,0.2663,0.2709,0.2725,0.2891,0.2792,0.2801,0.2808,0.2812,0.3146,0.3149,0,0,0,0,0,0,0.207,0.2107,0.2361,0.2373,0.2214,0.2359,0.2383,0.2441,0.2571,0.2589,0.2498,0.2498,0.2692,0.2712,0.2732,0.2866,0.2803,0.2813,0.2819,0.3144,0.3147,0.315,0,0,0,0,0,0,0.2063,0.2093,0.2353,0.2241,0.2275,0.2367,0.2432,0.2447,0.2492,0.2592,0.2609,0.2528,0.2691,0.2718,0.2833,0.2874,0.2818,0.2827,0.3141,0.3145,0.3148,0.3136,0,0,0,0,0,0,0.2053,0.209,0.2132,0.2242,0.2281,0.245,0.2435,0.2452,0.251,0.2511,0.2625,0.2642,0.2692,0.2817,0.2844,0.2888,0.2836,0.3137,0.3142,0.3147,0.3133,0.3139,0.3144,0,0,0,0,0,0.204,0.2123,0.2134,0.2164,0.2336,0.2452,0.2474,0.2529,0.2513,0.2556,0.262,0.2638,0.2865,0.2829,0.2859,0.2907,0.3135,0.3141,0.3147,0.3131,0.3138,0.3144,0,0,0,0,0,0,0.2019,0.2139,0.2152,0.2273,0.2351,0.2459,0.2515,0.2535,0.2622,0.262,0.2685,0.2711,0.2821,0.2876,0.2833,0.3017,0.3,0.3012,0.2977,0.2985,0.299,0.2974,0.2844,0,0,0,0,0,0.2028,0.2111,0.2212,0.2308,0.2347,0.2424,0.2477,0.2511,0.2596,0.2631,0.2703,0.2786,0.2875,0.2934,0.3022,0.3142,0.3166,0.3189,0.3194,0.3198,0.3208,0.3271,0.3281,0.3168,0.3168,0.3168,0,0,0.2048,0.2123,0.2173,0.2306,0.2371,0.2455,0.2452,0.2543,0.2606,0.2645,0.2757,0.2813,0.291,0.3026,0.3081,0.3075,0.3244,0.3206,0.3208,0.3216,0.3278,0.3288,0.3298,0.3172,0.3172,0.3171,0,0,0.2127,0.2193,0.2279,0.2343,0.244,0.249,0.251,0.2614,0.2652,0.2765,0.2794,0.2871,0.3026,0.3092,0.3146,0.3245,0.3264,0.3272,0.33,0.3361,0.337,0.3378,0.341,0.3421,0.3281,0.3281,0.3281,0,0.214,0.2267,0.2321,0.2409,0.2465,0.2501,0.2587,0.2648,0.277,0.2808,0.2799,0.299,0.3059,0.3189,0.3212,0.3256,0.328,0.3259,0.3364,0.3372,0.3381,0.3412,0.3425,0.3281,0.3281,0.3281,0.3281,0,0.2277,0.2364,0.2422,0.2535,0.2598,0.2685,0.2752,0.2809,0.2837,0.2888,0.3001,0.3083,0.3187,0.3221,0.3252,0.3355,0.3348,0.335,0.3334,0.3391,0.3421,0.3434,0.3282,0.3282,0.3281,0.3281,0,0,0.235,0.2488,0.2508,0.2557,0.2665,0.2734,0.2822,0.292,0.2967,0.305,0.3124,0.3251,0.3252,0.3314,0.3351,0.3405,0.3473,0.3401,0.3404,0.3409,0.3589,0.3584,0.3598,0.3487,0.3489,0.3491,0.358,0,0.244,0.2595,0.2644,0.2774,0.2853,0.2887,0.2963,0.3037,0.3086,0.3161,0.3217,0.3304,0.3302,0.3338,0.3392,0.3453,0.351,0.3448,0.3555,0.3558,0.3528,0.3614,0.3611,0.3691,0.3593,0.3595,0.3596,0,0.2567,0.2646,0.2782,0.2875,0.2911,0.2978,0.307,0.3142,0.3226,0.3258,0.3323,0.3356,0.3447,0.3425,0.3552,0.3508,0.3555,0.3591,0.3595,0.3607,0.358,0.3625,0.3718,0.3729,0.3616,0.3615,0.3613,0,0.2602,0.2744,0.2843,0.2885,0.2997,0.3042,0.3092,0.3173,0.3228,0.3309,0.3345,0.3437,0.3486,0.3556,0.3612,0.3591,0.3732,0.3716,0.376,0.3759,0.3788,0.3785,0.3887,0.3821,0.3821,0.3821,0.3821,0,0.2696,0.2777,0.2859,0.292,0.3011,0.3066,0.3156,0.3207,0.3278,0.3349,0.3386,0.3452,0.3522,0.3597,0.3641,0.3737,0.376,0.3788,0.3798,0.3784,0.378,0.3814,0.381,0.3824,0.3823,0.3823,0.3822,0,0.2751,0.2809,0.2918,0.3014,0.304,0.3103,0.3185,0.3245,0.3294,0.3383,0.3407,0.3485,0.3574,0.3636,0.3753,0.3783,0.3885,0.3897,0.3856,0.3861,0.3901,0.3895,0.4027,0.4046,0.3969,0.397,0.397,0,0.2806,0.2869,0.2969,0.3018,0.3066,0.3145,0.3199,0.3256,0.3311,0.3409,0.3456,0.3548,0.3624,0.3766,0.3833,0.3921,0.3933,0.3973,0.3947,0.3929,0.3931,0.3925,0.3931,0.3977,0.3978,0.3978,0.3978,0,0.2897,0.2921,0.2998,0.3083,0.3146,0.3216,0.3288,0.3326,0.3394,0.3455,0.3545,0.3603,0.372,0.3809,0.3903,0.3955,0.3978,0.3986,0.4,0.3985,0.3958,0.397,0.3864,0.3983,0.3982,0.3982,0.3982,0.3981,0.2953,0.3008,0.3086,0.3168,0.3227,0.3291,0.335,0.3405,0.348,0.3577,0.3607,0.37,0.3779,0.3907,0.3959,0.4033,0.403,0.4052,0.4057,0.4061,0.4059,0.3946,0.4051,0.4051,0.4051,0.4051,0.4051,0,0.3042,0.3093,0.3168,0.3264,0.3328,0.3341,0.342,0.3473,0.3553,0.3625,0.3697,0.3799,0.3885,0.3958,0.4047,0.4091,0.4104,0.4113,0.4109,0.412,0.4058,0.4035,0.4101,0.4101,0.4101,0.4101,0.4101,0.4101,0.3097,0.319,0.3223,0.3344,0.3395,0.3484,0.3527,0.3586,0.3643,0.3754,0.3824,0.387,0.3941,0.4035,0.4114,0.4133,0.4163,0.4169,0.419,0.4131,0.4125,0.4119,0.4098,0.4176,0.4176,0.4246,0.4246,0.4247]}]]